TimeEDT,TemperatureF,Dew PointF,Humidity,Sea Level PressureIn,VisibilityMPH,Wind Direction,Wind SpeedMPH,Gust SpeedMPH,PrecipitationIn,Events,Conditions,WindDirDegrees,DateUTC
12:15 AM,55.2,54.3,97,30.13,10.0,North,3.5,-,N/A,,Clear,350,2012-10-11 04:15:00
12:35 AM,54.1,53.2,97,30.14,10.0,Calm,Calm,-,N/A,,Clear,0,2012-10-11 04:35:00
12:55 AM,54.0,53.2,97,30.14,10.0,Calm,Calm,-,N/A,,Clear,0,2012-10-11 04:55:00
1:15 AM,55.6,54.0,94,30.14,10.0,Calm,Calm,-,N/A,,Clear,0,2012-10-11 05:15:00
1:35 AM,55.2,53.6,94,30.15,10.0,NNW,3.5,-,N/A,,Clear,330,2012-10-11 05:35:00
2:35 AM,51.3,50.9,99,30.16,10.0,Calm,Calm,-,N/A,,Clear,0,2012-10-11 06:35:00
2:55 AM,52.3,51.4,97,30.16,10.0,Calm,Calm,-,N/A,,Clear,0,2012-10-11 06:55:00
3:15 AM,53.6,50.9,91,30.16,10.0,Calm,Calm,-,N/A,,Clear,0,2012-10-11 07:15:00
3:55 AM,52.7,48.9,87,30.17,10.0,Calm,Calm,-,N/A,,Clear,0,2012-10-11 07:55:00
4:15 AM,52.0,48.2,87,30.18,10.0,North,3.5,-,N/A,,Clear,360,2012-10-11 08:15:00
4:35 AM,51.4,47.7,87,30.18,10.0,Calm,Calm,-,N/A,,Clear,0,2012-10-11 08:35:00
4:55 AM,50.0,47.5,91,30.18,10.0,NW,3.5,-,N/A,,Clear,310,2012-10-11 08:55:00
5:15 AM,48.2,46.8,95,30.19,10.0,Calm,Calm,-,N/A,,Clear,0,2012-10-11 09:15:00
5:35 AM,47.3,46.8,98,30.20,10.0,Calm,Calm,-,N/A,,Clear,0,2012-10-11 09:35:00
5:55 AM,47.8,46.6,95,30.20,10.0,Calm,Calm,-,N/A,,Clear,0,2012-10-11 09:55:00
6:15 AM,48.0,45.7,92,30.21,10.0,Calm,Calm,-,N/A,,Clear,0,2012-10-11 10:15:00
6:35 AM,48.0,45.5,91,30.22,10.0,Calm,Calm,-,N/A,,Clear,0,2012-10-11 10:35:00
6:55 AM,47.8,45.1,90,30.23,10.0,Calm,Calm,-,N/A,,Clear,0,2012-10-11 10:55:00
7:15 AM,45.1,43.9,95,30.23,10.0,Calm,Calm,-,N/A,,Clear,0,2012-10-11 11:15:00
7:35 AM,45.3,44.2,96,30.25,10.0,Calm,Calm,-,N/A,,Clear,0,2012-10-11 11:35:00
7:55 AM,46.4,44.6,93,30.25,10.0,Calm,Calm,-,N/A,,Clear,0,2012-10-11 11:55:00
8:35 AM,49.5,44.6,83,30.27,10.0,Calm,Calm,-,N/A,,Clear,0,2012-10-11 12:35:00
8:55 AM,51.1,44.4,78,30.28,10.0,NNE,4.6,-,N/A,,Clear,20,2012-10-11 12:55:00
9:15 AM,52.7,44.2,73,30.29,10.0,NNE,5.8,-,N/A,,Clear,30,2012-10-11 13:15:00
9:35 AM,53.8,44.1,70,30.29,10.0,NE,6.9,-,N/A,,Clear,50,2012-10-11 13:35:00
9:55 AM,55.0,44.1,67,30.30,10.0,NNE,5.8,-,N/A,,Clear,30,2012-10-11 13:55:00
10:15 AM,56.7,43.7,62,30.30,10.0,NNE,8.1,-,N/A,,Clear,30,2012-10-11 14:15:00
10:35 AM,58.6,43.5,57,30.31,10.0,NNE,9.2,-,N/A,,Clear,20,2012-10-11 14:35:00
10:55 AM,59.7,42.1,52,30.30,10.0,NE,9.2,-,N/A,,Clear,40,2012-10-11 14:55:00
11:15 AM,61.0,41.5,49,30.31,10.0,NNE,6.9,-,N/A,,Clear,30,2012-10-11 15:15:00
11:35 AM,61.7,41.4,47,30.31,10.0,ENE,8.1,-,N/A,,Clear,60,2012-10-11 15:35:00
11:55 AM,62.6,40.3,44,30.30,10.0,East,3.5,-,N/A,,Clear,90,2012-10-11 15:55:00
12:15 PM,63.1,41.2,45,30.30,10.0,Calm,Calm,-,N/A,,Clear,0,2012-10-11 16:15:00
12:35 PM,64.2,42.1,44,30.29,10.0,North,5.8,-,N/A,,Clear,10,2012-10-11 16:35:00
12:55 PM,64.6,41.7,43,30.29,10.0,ENE,3.5,-,N/A,,Clear,70,2012-10-11 16:55:00
1:15 PM,64.6,40.5,41,30.28,10.0,SE,4.6,-,N/A,,Clear,140,2012-10-11 17:15:00
1:55 PM,65.5,41.0,41,30.26,10.0,North,4.6,-,N/A,,Clear,10,2012-10-11 17:55:00
2:15 PM,66.2,42.1,41,30.26,10.0,SSW,3.5,-,N/A,,Clear,200,2012-10-11 18:15:00
2:35 PM,66.6,42.6,42,30.26,10.0,West,3.5,-,N/A,,Clear,270,2012-10-11 18:35:00
2:55 PM,66.9,41.2,39,30.25,10.0,Calm,Calm,-,N/A,,Clear,0,2012-10-11 18:55:00
3:35 PM,68.0,41.9,39,30.25,10.0,WSW,3.5,-,N/A,,Clear,240,2012-10-11 19:35:00
3:55 PM,68.4,42.3,39,30.24,10.0,Calm,Calm,-,N/A,,Clear,0,2012-10-11 19:55:00
4:15 PM,68.2,42.1,39,30.24,10.0,WSW,3.5,-,N/A,,Clear,240,2012-10-11 20:15:00
4:35 PM,68.2,43.3,41,30.23,10.0,Calm,Calm,-,N/A,,Clear,0,2012-10-11 20:35:00
4:55 PM,68.4,42.6,39,30.23,10.0,Calm,Calm,-,N/A,,Clear,0,2012-10-11 20:55:00
5:15 PM,68.2,41.7,38,30.23,10.0,Calm,Calm,-,N/A,,Clear,0,2012-10-11 21:15:00
5:35 PM,68.0,43.0,40,30.23,10.0,SW,4.6,-,N/A,,Clear,230,2012-10-11 21:35:00
5:55 PM,67.5,44.1,43,30.23,10.0,WSW,3.5,-,N/A,,Clear,240,2012-10-11 21:55:00
6:35 PM,64.6,50.0,59,30.24,10.0,Calm,Calm,-,N/A,,Clear,0,2012-10-11 22:35:00
6:55 PM,63.3,48.9,59,30.24,10.0,Calm,Calm,-,N/A,,Clear,0,2012-10-11 22:55:00
7:35 PM,59.0,51.6,76,30.24,10.0,Calm,Calm,-,N/A,,Clear,0,2012-10-11 23:35:00
7:55 PM,57.9,50.4,76,30.24,10.0,Calm,Calm,-,N/A,,Clear,0,2012-10-11 23:55:00
8:15 PM,57.9,50.5,76,30.25,10.0,Calm,Calm,-,N/A,,Clear,0,2012-10-12 00:15:00
8:35 PM,57.2,49.1,74,30.25,10.0,Calm,Calm,-,N/A,,Clear,0,2012-10-12 00:35:00
9:15 PM,55.4,49.5,80,30.25,10.0,Calm,Calm,-,N/A,,Clear,0,2012-10-12 01:15:00
9:35 PM,54.9,49.1,81,30.25,10.0,Calm,Calm,-,N/A,,Clear,0,2012-10-12 01:35:00
9:55 PM,53.8,48.9,84,30.25,10.0,Calm,Calm,-,N/A,,Clear,0,2012-10-12 01:55:00
10:15 PM,53.4,47.8,81,30.25,10.0,Calm,Calm,-,N/A,,Clear,0,2012-10-12 02:15:00
10:35 PM,52.5,47.7,84,30.25,10.0,Calm,Calm,-,N/A,,Clear,0,2012-10-12 02:35:00
10:55 PM,50.5,48.2,92,30.25,10.0,Calm,Calm,-,N/A,,Clear,0,2012-10-12 02:55:00
11:15 PM,51.3,48.7,91,30.24,10.0,Calm,Calm,-,N/A,,Clear,0,2012-10-12 03:15:00
11:35 PM,51.1,48.6,91,30.24,10.0,Calm,Calm,-,N/A,,Clear,0,2012-10-12 03:35:00
11:55 PM,50.7,48.6,92,30.24,10.0,Calm,Calm,-,N/A,,Clear,0,2012-10-12 03:55:00